Time,TemperatureF,DewpointF,PressureIn,WindDirection,WindDirectionDegrees,WindSpeedMPH,WindSpeedGustMPH,Humidity,HourlyPrecipIn,Conditions,Clouds,dailyrainin,SoftwareType,DateUTC
2013-03-27 00:04:00,29.3,11.1,29.29,North,0,0.0,0.0,46,0.00,,OVC060,0.00,VWS V14.01,2013-03-27 05:04:00,
2013-03-27 00:09:00,29.3,11.1,29.29,North,0,0.0,0.0,46,0.00,,OVC060,0.00,VWS V14.01,2013-03-27 05:09:00,
2013-03-27 00:15:00,29.3,11.1,29.29,North,0,0.0,0.0,46,0.00,,OVC060,0.00,VWS V14.01,2013-03-27 05:15:00,
2013-03-27 00:20:00,29.3,11.1,29.29,North,0,0.0,0.0,46,0.00,,OVC060,0.00,VWS V14.01,2013-03-27 05:20:00,
2013-03-27 00:25:00,29.3,11.1,29.29,North,0,0.0,0.0,46,0.00,,OVC060,0.00,VWS V14.01,2013-03-27 05:25:00,
2013-03-27 00:32:00,29.3,11.1,29.29,North,0,0.0,0.0,46,0.00,,OVC060,0.00,VWS V14.01,2013-03-27 05:32:00,
2013-03-27 00:37:00,29.3,11.1,29.29,North,0,0.0,0.0,46,0.00,,OVC060,0.00,VWS V14.01,2013-03-27 05:37:00,
2013-03-27 00:42:00,29.1,10.9,29.29,North,0,0.0,0.0,46,0.00,,OVC060,0.00,VWS V14.01,2013-03-27 05:42:00,
2013-03-27 00:47:00,29.1,10.9,29.29,North,0,0.0,0.0,46,0.00,,OVC060,0.00,VWS V14.01,2013-03-27 05:47:00,
2013-03-27 00:52:00,29.1,10.9,29.29,North,0,0.0,0.0,46,0.00,,OVC060,0.00,VWS V14.01,2013-03-27 05:52:00,
2013-03-27 00:58:00,29.1,10.9,29.29,North,0,0.0,0.0,46,0.00,,OVC060,0.00,VWS V14.01,2013-03-27 05:58:00,
2013-03-27 01:03:00,29.1,10.9,29.29,North,0,0.0,0.0,46,0.00,,OVC060,0.00,VWS V14.01,2013-03-27 06:03:00,
2013-03-27 01:09:00,29.3,11.1,29.29,North,0,0.0,0.0,46,0.00,,OVC060,0.00,VWS V14.01,2013-03-27 06:09:00,
2013-03-27 01:14:00,29.1,10.9,29.29,North,0,0.0,0.0,46,0.00,,OVC060,0.00,VWS V14.01,2013-03-27 06:14:00,
2013-03-27 01:19:00,29.1,10.9,29.29,North,0,0.0,0.0,46,0.00,,OVC060,0.00,VWS V14.01,2013-03-27 06:19:00,
2013-03-27 01:24:00,29.1,10.9,29.29,North,0,0.0,0.0,46,0.00,,OVC060,0.00,VWS V14.01,2013-03-27 06:24:00,
2013-03-27 01:29:00,29.1,10.9,29.29,North,0,0.0,0.0,46,0.00,,OVC060,0.00,VWS V14.01,2013-03-27 06:29:00,
2013-03-27 01:35:00,29.1,10.9,29.29,North,0,0.0,0.0,46,0.00,,OVC060,0.00,VWS V14.01,2013-03-27 06:35:00,
2013-03-27 01:40:00,28.9,10.8,29.29,North,0,0.0,0.0,46,0.00,,OVC060,0.00,VWS V14.01,2013-03-27 06:40:00,
2013-03-27 01:45:00,28.9,11.2,29.29,North,0,0.0,0.0,47,0.00,,OVC060,0.00,VWS V14.01,2013-03-27 06:45:00,
2013-03-27 01:50:00,28.9,11.2,29.29,North,0,0.0,0.0,47,0.00,,OVC060,0.00,VWS V14.01,2013-03-27 06:50:00,
2013-03-27 01:55:00,28.7,11.1,29.29,North,0,0.0,0.0,47,0.00,,OVC060,0.00,VWS V14.01,2013-03-27 06:55:00,
2013-03-27 02:00:00,28.7,11.1,29.29,North,0,0.0,0.0,47,0.00,,OVC060,0.00,VWS V14.01,2013-03-27 07:00:00,
2013-03-27 02:06:00,28.6,10.9,29.32,North,0,0.0,0.0,47,0.00,,OVC060,0.00,VWS V14.01,2013-03-27 07:06:00,
2013-03-27 02:11:00,28.4,10.7,29.32,North,0,0.0,0.0,47,0.00,,OVC060,0.00,VWS V14.01,2013-03-27 07:11:00,
2013-03-27 02:16:00,28.2,11.0,29.32,North,0,0.0,0.0,48,0.00,,OVC060,0.00,VWS V14.01,2013-03-27 07:16:00,
2013-03-27 02:21:00,28.2,11.0,29.29,North,0,0.0,0.0,48,0.00,,OVC060,0.00,VWS V14.01,2013-03-27 07:21:00,
2013-03-27 02:27:00,28.0,10.9,29.29,North,0,0.0,0.0,48,0.00,,OVC060,0.00,VWS V14.01,2013-03-27 07:27:00,
2013-03-27 02:32:00,27.8,11.2,29.29,North,0,0.0,0.0,49,0.00,,OVC060,0.00,VWS V14.01,2013-03-27 07:32:00,
2013-03-27 02:37:00,27.8,11.2,29.29,North,0,0.0,0.0,49,0.00,,OVC060,0.00,VWS V14.01,2013-03-27 07:37:00,
2013-03-27 02:43:00,27.7,11.0,29.29,North,0,0.0,0.0,49,0.00,,OVC060,0.00,VWS V14.01,2013-03-27 07:43:00,
2013-03-27 02:48:00,27.7,11.5,29.29,North,0,0.0,0.0,50,0.00,,OVC060,0.00,VWS V14.01,2013-03-27 07:48:00,
2013-03-27 02:53:00,27.5,11.3,29.29,North,0,0.0,0.0,50,0.00,,OVC060,0.00,VWS V14.01,2013-03-27 07:53:00,
2013-03-27 02:58:00,27.5,11.3,29.29,North,0,0.0,0.0,50,0.00,,OVC060,0.00,VWS V14.01,2013-03-27 07:58:00,
2013-03-27 03:04:00,27.5,11.3,29.29,North,0,0.0,0.0,50,0.00,,OVC060,0.00,VWS V14.01,2013-03-27 08:04:00,
2013-03-27 03:10:00,27.5,11.7,29.29,North,0,0.0,0.0,51,0.00,,OVC060,0.00,VWS V14.01,2013-03-27 08:10:00,
2013-03-27 03:15:00,27.5,11.7,29.29,North,0,0.0,0.0,51,0.00,,OVC060,0.00,VWS V14.01,2013-03-27 08:15:00,
2013-03-27 03:20:00,27.3,11.6,29.29,North,0,0.0,0.0,51,0.00,,OVC060,0.00,VWS V14.01,2013-03-27 08:20:00,
2013-03-27 03:25:00,27.3,11.6,29.29,North,0,0.0,0.0,51,0.00,,OVC060,0.00,VWS V14.01,2013-03-27 08:25:00,
2013-03-27 03:30:00,27.3,11.6,29.29,North,0,0.0,0.0,51,0.00,,OVC060,0.00,VWS V14.01,2013-03-27 08:30:00,
2013-03-27 03:36:00,27.5,11.7,29.29,North,0,0.0,0.0,51,0.00,,OVC060,0.00,VWS V14.01,2013-03-27 08:36:00,
2013-03-27 03:42:00,27.5,11.7,29.29,North,0,0.0,0.0,51,0.00,,OVC060,0.00,VWS V14.01,2013-03-27 08:42:00,
2013-03-27 03:48:00,27.5,11.7,29.29,North,0,0.0,0.0,51,0.00,,OVC060,0.00,VWS V14.01,2013-03-27 08:48:00,
2013-03-27 03:54:00,27.5,11.7,29.29,North,0,0.0,0.0,51,0.00,,OVC060,0.00,VWS V14.01,2013-03-27 08:54:00,
2013-03-27 03:59:00,27.3,11.6,29.29,North,0,0.0,0.0,51,0.00,,OVC060,0.00,VWS V14.01,2013-03-27 08:59:00,
2013-03-27 04:04:00,27.3,11.6,29.29,North,0,0.0,0.0,51,0.00,,OVC060,0.00,VWS V14.01,2013-03-27 09:04:00,
2013-03-27 04:10:00,27.1,11.4,29.29,North,0,0.0,0.0,51,0.00,,OVC060,0.00,VWS V14.01,2013-03-27 09:10:00,
2013-03-27 04:15:00,27.1,11.4,29.29,North,0,0.0,0.0,51,0.00,,OVC060,0.00,VWS V14.01,2013-03-27 09:15:00,
2013-03-27 04:20:00,26.9,11.2,29.29,North,0,0.0,0.0,51,0.00,,OVC060,0.00,VWS V14.01,2013-03-27 09:20:00,
2013-03-27 04:26:00,26.8,11.1,29.29,North,0,0.0,0.0,51,0.00,,OVC060,0.00,VWS V14.01,2013-03-27 09:26:00,
2013-03-27 04:31:00,26.8,11.1,29.29,North,0,0.0,0.0,51,0.00,,OVC060,0.00,VWS V14.01,2013-03-27 09:31:00,
2013-03-27 04:36:00,26.8,11.1,29.29,North,0,0.0,0.0,51,0.00,,OVC060,0.00,VWS V14.01,2013-03-27 09:36:00,
2013-03-27 04:41:00,26.8,11.1,29.29,North,0,0.0,0.0,51,0.00,,OVC060,0.00,VWS V14.01,2013-03-27 09:41:00,
2013-03-27 04:47:00,26.8,11.1,29.29,North,0,0.0,0.0,51,0.00,,OVC060,0.00,VWS V14.01,2013-03-27 09:47:00,
2013-03-27 04:52:00,26.6,10.9,29.29,North,0,0.0,0.0,51,0.00,,OVC060,0.00,VWS V14.01,2013-03-27 09:52:00,
2013-03-27 04:57:00,26.6,10.9,29.29,North,0,0.0,0.0,51,0.00,,OVC060,0.00,VWS V14.01,2013-03-27 09:57:00,
2013-03-27 05:03:00,26.6,10.9,29.29,North,0,0.0,0.0,51,0.00,,OVC060,0.00,VWS V14.01,2013-03-27 10:03:00,
2013-03-27 05:08:00,26.6,10.9,29.29,North,0,0.0,0.0,51,0.00,,OVC060,0.00,VWS V14.01,2013-03-27 10:08:00,
2013-03-27 05:13:00,26.6,10.9,29.29,North,0,0.0,0.0,51,0.00,,OVC060,0.00,VWS V14.01,2013-03-27 10:13:00,
2013-03-27 05:18:00,26.4,11.2,29.29,North,0,0.0,0.0,52,0.00,,OVC060,0.00,VWS V14.01,2013-03-27 10:18:00,
2013-03-27 05:24:00,26.4,11.2,29.29,North,0,0.0,0.0,52,0.00,,OVC060,0.00,VWS V14.01,2013-03-27 10:24:00,
2013-03-27 05:30:00,26.4,11.2,29.29,North,0,0.0,0.0,52,0.00,,OVC060,0.00,VWS V14.01,2013-03-27 10:30:00,
2013-03-27 05:35:00,26.4,11.2,29.29,North,0,0.0,0.0,52,0.00,,OVC060,0.00,VWS V14.01,2013-03-27 10:35:00,
2013-03-27 05:40:00,26.4,11.2,29.29,North,0,0.0,0.0,52,0.00,,OVC060,0.00,VWS V14.01,2013-03-27 10:40:00,
2013-03-27 05:45:00,26.4,11.2,29.29,North,0,0.0,0.0,52,0.00,,OVC060,0.00,VWS V14.01,2013-03-27 10:45:00,
2013-03-27 05:50:00,26.2,11.0,29.32,North,0,0.0,0.0,52,0.00,,OVC060,0.00,VWS V14.01,2013-03-27 10:50:00,
2013-03-27 05:55:00,26.2,11.0,29.32,North,0,0.0,0.0,52,0.00,,OVC060,0.00,VWS V14.01,2013-03-27 10:55:00,
2013-03-27 06:01:00,26.2,11.0,29.32,North,0,0.0,0.0,52,0.00,,OVC060,0.00,VWS V14.01,2013-03-27 11:01:00,
2013-03-27 06:06:00,26.2,11.0,29.32,North,0,0.0,0.0,52,0.00,,OVC060,0.00,VWS V14.01,2013-03-27 11:06:00,
2013-03-27 06:11:00,26.2,11.4,29.32,North,0,0.0,0.0,53,0.00,,OVC060,0.00,VWS V14.01,2013-03-27 11:11:00,
2013-03-27 06:17:00,26.0,11.3,29.32,North,0,0.0,0.0,53,0.00,,OVC060,0.00,VWS V14.01,2013-03-27 11:17:00,
2013-03-27 06:22:00,26.2,11.4,29.32,North,0,0.0,0.0,53,0.00,,OVC060,0.00,VWS V14.01,2013-03-27 11:22:00,
2013-03-27 06:28:00,26.2,11.4,29.32,North,0,0.0,0.0,53,0.00,,OVC060,0.00,VWS V14.01,2013-03-27 11:28:00,
2013-03-27 06:33:00,26.2,11.4,29.32,North,0,0.0,0.0,53,0.00,,OVC060,0.00,VWS V14.01,2013-03-27 11:33:00,
2013-03-27 06:39:00,26.0,11.3,29.32,North,0,0.0,0.0,53,0.00,,OVC060,0.00,VWS V14.01,2013-03-27 11:39:00,
2013-03-27 06:44:00,26.0,11.3,29.32,North,0,0.0,0.0,53,0.00,,OVC060,0.00,VWS V14.01,2013-03-27 11:44:00,
2013-03-27 06:49:00,26.0,11.3,29.32,North,0,0.0,0.0,53,0.00,,OVC060,0.00,VWS V14.01,2013-03-27 11:49:00,
2013-03-27 06:54:00,25.9,11.1,29.32,North,0,0.0,0.0,53,0.00,,OVC060,0.00,VWS V14.01,2013-03-27 11:54:00,
2013-03-27 06:59:00,25.9,11.1,29.32,North,0,0.0,0.0,53,0.00,,OVC060,0.00,VWS V14.01,2013-03-27 11:59:00,
2013-03-27 07:05:00,26.0,11.3,29.32,North,0,0.0,0.0,53,0.00,,OVC060,0.00,VWS V14.01,2013-03-27 12:05:00,
2013-03-27 07:10:00,26.0,11.3,29.32,North,0,0.0,0.0,53,0.00,,OVC060,0.00,VWS V14.01,2013-03-27 12:10:00,
2013-03-27 07:15:00,26.0,11.3,29.32,North,0,0.0,0.0,53,0.00,,OVC060,0.00,VWS V14.01,2013-03-27 12:15:00,
2013-03-27 07:20:00,26.0,11.3,29.32,North,0,0.0,0.0,53,0.00,,OVC060,0.00,VWS V14.01,2013-03-27 12:20:00,
2013-03-27 07:25:00,26.2,11.4,29.32,North,0,0.0,0.0,53,0.00,,OVC060,0.00,VWS V14.01,2013-03-27 12:25:00,
2013-03-27 07:31:00,26.6,11.8,29.32,North,0,0.0,0.0,53,0.00,,OVC060,0.00,VWS V14.01,2013-03-27 12:31:00,
2013-03-27 07:36:00,26.8,11.9,29.32,North,0,0.0,0.0,53,0.00,,OVC060,0.00,VWS V14.01,2013-03-27 12:36:00,
2013-03-27 07:41:00,26.9,12.5,29.32,North,0,0.0,0.0,54,0.00,,OVC060,0.00,VWS V14.01,2013-03-27 12:41:00,
2013-03-27 07:46:00,27.3,12.4,29.32,North,0,0.0,0.0,53,0.00,,OVC060,0.00,VWS V14.01,2013-03-27 12:46:00,
2013-03-27 07:52:00,27.7,12.8,29.32,North,0,0.0,0.0,53,0.00,,OVC060,0.00,VWS V14.01,2013-03-27 12:52:00,
2013-03-27 07:57:00,28.0,13.1,29.32,North,0,0.0,0.0,53,0.00,,OVC060,0.00,VWS V14.01,2013-03-27 12:57:00,
2013-03-27 08:03:00,28.4,13.4,29.32,North,0,0.0,0.0,53,0.00,,OVC055,0.00,VWS V14.01,2013-03-27 13:03:00,
2013-03-27 08:08:00,28.9,13.5,29.32,North,0,0.0,0.0,52,0.00,,OVC055,0.00,VWS V14.01,2013-03-27 13:08:00,
2013-03-27 08:14:00,29.1,13.7,29.32,North,0,0.0,0.0,52,0.00,,OVC055,0.00,VWS V14.01,2013-03-27 13:14:00,
2013-03-27 08:19:00,29.5,14.0,29.32,North,0,0.0,0.0,52,0.00,,OVC055,0.00,VWS V14.01,2013-03-27 13:19:00,
2013-03-27 08:24:00,29.8,13.9,29.32,North,0,0.0,0.0,51,0.00,,OVC055,0.00,VWS V14.01,2013-03-27 13:24:00,
2013-03-27 08:29:00,30.2,14.2,29.32,North,0,0.0,0.0,51,0.00,,OVC055,0.00,VWS V14.01,2013-03-27 13:29:00,
2013-03-27 08:34:00,30.5,14.1,29.35,North,0,0.0,0.0,50,0.00,,OVC055,0.00,VWS V14.01,2013-03-27 13:34:00,
2013-03-27 08:39:00,30.7,14.3,29.35,North,0,0.0,0.0,50,0.00,,OVC055,0.00,VWS V14.01,2013-03-27 13:39:00,
2013-03-27 08:45:00,31.3,14.3,29.35,North,0,0.0,0.0,49,0.00,,OVC055,0.00,VWS V14.01,2013-03-27 13:45:00,
2013-03-27 08:50:00,31.6,14.2,29.35,North,0,0.0,0.0,48,0.00,,OVC055,0.00,VWS V14.01,2013-03-27 13:50:00,
2013-03-27 08:55:00,32.0,14.1,29.35,North,0,0.0,0.0,47,0.00,,OVC055,0.00,VWS V14.01,2013-03-27 13:55:00,
2013-03-27 09:01:00,32.2,13.7,29.35,North,0,0.0,0.0,46,0.00,,OVC055,0.00,VWS V14.01,2013-03-27 14:01:00,
2013-03-27 09:06:00,32.5,13.6,29.35,North,0,0.0,0.0,45,0.00,,OVC055,0.00,VWS V14.01,2013-03-27 14:06:00,
2013-03-27 09:12:00,33.1,13.5,29.35,North,0,0.0,0.0,44,0.00,,OVC055,0.00,VWS V14.01,2013-03-27 14:12:00,
2013-03-27 09:17:00,33.4,13.3,29.35,North,0,0.0,0.0,43,0.00,,OVC055,0.00,VWS V14.01,2013-03-27 14:17:00,
2013-03-27 09:23:00,33.8,13.1,29.32,North,0,0.0,0.0,42,0.00,,OVC055,0.00,VWS V14.01,2013-03-27 14:23:00,
2013-03-27 09:28:00,34.5,13.2,29.32,North,0,0.0,0.0,41,0.00,,OVC055,0.00,VWS V14.01,2013-03-27 14:28:00,
2013-03-27 09:33:00,35.0,13.7,29.32,North,0,0.0,0.0,41,0.00,,OVC055,0.00,VWS V14.01,2013-03-27 14:33:00,
2013-03-27 09:38:00,35.6,13.7,29.32,North,0,0.0,0.0,40,0.00,,OVC055,0.00,VWS V14.01,2013-03-27 14:38:00,
2013-03-27 09:43:00,36.1,13.6,29.32,North,0,0.0,0.0,39,0.00,,OVC055,0.00,VWS V14.01,2013-03-27 14:43:00,
2013-03-27 09:49:00,37.2,14.5,29.32,North,0,0.0,0.0,39,0.00,,OVC055,0.00,VWS V14.01,2013-03-27 14:49:00,
2013-03-27 09:54:00,38.1,15.4,29.32,North,0,0.0,0.0,39,0.00,,OVC055,0.00,VWS V14.01,2013-03-27 14:54:00,
2013-03-27 09:59:00,38.5,14.5,29.32,North,0,0.0,0.0,37,0.00,,OVC055,0.00,VWS V14.01,2013-03-27 14:59:00,
2013-03-27 10:04:00,39.0,14.3,29.32,North,0,0.0,0.0,36,0.00,,OVC060,0.00,VWS V14.01,2013-03-27 15:04:00,
2013-03-27 10:09:00,39.5,13.5,29.32,North,0,0.0,0.0,34,0.00,,OVC060,0.00,VWS V14.01,2013-03-27 15:09:00,
2013-03-27 10:15:00,40.3,13.5,29.32,North,0,0.0,0.0,33,0.00,,OVC060,0.00,VWS V14.01,2013-03-27 15:15:00,
2013-03-27 10:20:00,40.8,12.5,29.32,North,0,0.0,0.0,31,0.00,,OVC060,0.00,VWS V14.01,2013-03-27 15:20:00,
2013-03-27 10:25:00,40.8,11.8,29.32,North,0,0.0,0.0,30,0.00,,OVC060,0.00,VWS V14.01,2013-03-27 15:25:00,
2013-03-27 10:30:00,41.5,11.6,29.32,North,0,0.0,0.0,29,0.00,,OVC060,0.00,VWS V14.01,2013-03-27 15:30:00,
2013-03-27 10:35:00,41.5,10.9,29.35,North,0,0.0,0.0,28,0.00,,OVC060,0.00,VWS V14.01,2013-03-27 15:35:00,
2013-03-27 10:42:00,39.7,9.3,29.35,North,0,0.0,0.0,28,0.00,,OVC060,0.00,VWS V14.01,2013-03-27 15:42:00,
2013-03-27 10:47:00,40.1,9.6,29.35,North,0,0.0,0.0,28,0.00,,OVC060,0.00,VWS V14.01,2013-03-27 15:47:00,
2013-03-27 10:52:00,40.3,9.8,29.35,North,0,0.0,0.0,28,0.00,,OVC060,0.00,VWS V14.01,2013-03-27 15:52:00,
2013-03-27 10:58:00,40.4,9.9,29.35,North,0,0.0,0.0,28,0.00,,OVC060,0.00,VWS V14.01,2013-03-27 15:58:00,
2013-03-27 11:03:00,39.9,9.4,29.35,North,0,0.0,0.0,28,0.00,,OVC060,0.00,VWS V14.01,2013-03-27 16:03:00,
2013-03-27 11:08:00,39.9,9.4,29.35,North,0,0.0,0.0,28,0.00,,OVC060,0.00,VWS V14.01,2013-03-27 16:08:00,
2013-03-27 11:13:00,40.1,9.6,29.35,North,0,0.0,0.0,28,0.00,,OVC060,0.00,VWS V14.01,2013-03-27 16:13:00,
2013-03-27 11:18:00,39.7,9.3,29.35,North,0,0.0,0.0,28,0.00,,OVC060,0.00,VWS V14.01,2013-03-27 16:18:00,
2013-03-27 11:24:00,40.1,9.6,29.35,North,0,0.0,0.0,28,0.00,,OVC060,0.00,VWS V14.01,2013-03-27 16:24:00,
2013-03-27 11:29:00,40.4,9.9,29.35,North,0,0.0,0.0,28,0.00,,OVC060,0.00,VWS V14.01,2013-03-27 16:29:00,
2013-03-27 11:34:00,40.8,10.2,29.35,North,0,0.0,0.0,28,0.00,,OVC060,0.00,VWS V14.01,2013-03-27 16:34:00,
2013-03-27 11:39:00,42.8,11.1,29.35,North,0,0.0,0.0,27,0.00,,OVC060,0.00,VWS V14.01,2013-03-27 16:39:00,
2013-03-27 11:44:00,45.7,11.0,29.35,North,0,0.0,0.0,24,0.00,,OVC060,0.00,VWS V14.01,2013-03-27 16:44:00,
2013-03-27 11:50:00,46.0,11.3,29.35,North,0,0.0,0.0,24,0.00,,OVC060,0.00,VWS V14.01,2013-03-27 16:50:00,
2013-03-27 11:55:00,44.6,10.0,29.35,North,0,0.0,0.0,24,0.00,,OVC060,0.00,VWS V14.01,2013-03-27 16:55:00,
2013-03-27 12:00:00,42.8,9.4,29.35,North,0,0.0,0.0,25,0.00,,OVC060,0.00,VWS V14.01,2013-03-27 17:00:00,
2013-03-27 12:05:00,41.3,8.2,29.35,North,0,0.0,0.0,25,0.00,,FEW060,0.00,VWS V14.01,2013-03-27 17:05:00,
2013-03-27 12:11:00,40.6,8.4,29.35,North,0,0.0,0.0,26,0.00,,FEW060,0.00,VWS V14.01,2013-03-27 17:11:00,
2013-03-27 12:17:00,42.2,8.9,29.35,North,0,0.0,0.0,25,0.00,,FEW060,0.00,VWS V14.01,2013-03-27 17:17:00,
2013-03-27 12:22:00,43.5,10.0,29.35,North,0,0.0,0.0,25,0.00,,FEW060,0.00,VWS V14.01,2013-03-27 17:22:00,
2013-03-27 12:27:00,43.7,10.2,29.35,North,0,0.0,0.0,25,0.00,,FEW060,0.00,VWS V14.01,2013-03-27 17:27:00,
2013-03-27 12:33:00,41.9,8.6,29.35,North,0,0.0,0.0,25,0.00,,FEW060,0.00,VWS V14.01,2013-03-27 17:33:00,
2013-03-27 12:38:00,40.6,8.4,29.35,North,0,0.0,0.0,26,0.00,,FEW060,0.00,VWS V14.01,2013-03-27 17:38:00,
2013-03-27 12:43:00,41.3,8.2,29.35,North,0,0.0,0.0,25,0.00,,FEW060,0.00,VWS V14.01,2013-03-27 17:43:00,
2013-03-27 12:49:00,42.6,9.3,29.35,North,0,0.0,0.0,25,0.00,,FEW060,0.00,VWS V14.01,2013-03-27 17:49:00,
2013-03-27 12:54:00,44.2,10.6,29.35,North,0,0.0,0.0,25,0.00,,FEW060,0.00,VWS V14.01,2013-03-27 17:54:00,
2013-03-27 12:59:00,45.7,11.0,29.35,North,0,0.0,0.0,24,0.00,,FEW060,0.00,VWS V14.01,2013-03-27 17:59:00,
2013-03-27 13:05:00,46.7,8.9,29.35,North,0,0.0,0.0,21,0.00,,CLR,0.00,VWS V14.01,2013-03-27 18:05:00,
2013-03-27 13:11:00,47.1,9.2,29.35,North,0,0.0,0.0,21,0.00,,CLR,0.00,VWS V14.01,2013-03-27 18:11:00,
2013-03-27 13:17:00,48.2,10.1,29.35,North,0,0.0,0.0,21,0.00,,CLR,0.00,VWS V14.01,2013-03-27 18:17:00,
2013-03-27 13:22:00,48.2,10.1,29.35,North,0,0.0,0.0,21,0.00,,CLR,0.00,VWS V14.01,2013-03-27 18:22:00,
2013-03-27 13:27:00,47.5,9.5,29.35,North,0,0.0,0.0,21,0.00,,CLR,0.00,VWS V14.01,2013-03-27 18:27:00,
2013-03-27 13:33:00,47.8,9.8,29.35,North,0,0.0,0.0,21,0.00,,CLR,0.00,VWS V14.01,2013-03-27 18:33:00,
2013-03-27 13:38:00,47.8,9.8,29.35,North,0,0.0,0.0,21,0.00,,CLR,0.00,VWS V14.01,2013-03-27 18:38:00,
2013-03-27 13:43:00,48.0,9.9,29.35,North,0,0.0,0.0,21,0.00,,CLR,0.00,VWS V14.01,2013-03-27 18:43:00,
2013-03-27 13:49:00,48.2,10.1,29.32,North,0,0.0,0.0,21,0.00,,CLR,0.00,VWS V14.01,2013-03-27 18:49:00,
2013-03-27 13:54:00,47.5,9.5,29.32,North,0,0.0,0.0,21,0.00,,CLR,0.00,VWS V14.01,2013-03-27 18:54:00,
2013-03-27 13:59:00,47.8,9.8,29.32,North,0,0.0,0.0,21,0.00,,CLR,0.00,VWS V14.01,2013-03-27 18:59:00,
2013-03-27 14:05:00,48.5,10.4,29.32,North,0,0.0,0.0,21,0.00,,CLR,0.00,VWS V14.01,2013-03-27 19:05:00,
2013-03-27 14:10:00,48.9,10.7,29.32,North,0,0.0,0.0,21,0.00,,CLR,0.00,VWS V14.01,2013-03-27 19:10:00,
2013-03-27 14:15:00,48.0,9.9,29.32,North,0,0.0,0.0,21,0.00,,CLR,0.00,VWS V14.01,2013-03-27 19:15:00,
2013-03-27 14:20:00,47.8,9.8,29.32,North,0,0.0,0.0,21,0.00,,CLR,0.00,VWS V14.01,2013-03-27 19:20:00,
2013-03-27 14:26:00,46.6,8.7,29.32,North,0,0.0,0.0,21,0.00,,CLR,0.00,VWS V14.01,2013-03-27 19:26:00,
2013-03-27 14:31:00,46.6,8.7,29.32,North,0,0.0,0.0,21,0.00,,CLR,0.00,VWS V14.01,2013-03-27 19:31:00,
2013-03-27 14:36:00,47.1,9.2,29.32,North,0,0.0,0.0,21,0.00,,CLR,0.00,VWS V14.01,2013-03-27 19:36:00,
2013-03-27 14:41:00,47.6,9.6,29.32,North,0,0.0,0.0,21,0.00,,CLR,0.00,VWS V14.01,2013-03-27 19:41:00,
2013-03-27 14:47:00,48.2,10.1,29.32,North,0,0.0,0.0,21,0.00,,CLR,0.00,VWS V14.01,2013-03-27 19:47:00,
2013-03-27 14:53:00,48.0,9.9,29.32,North,0,0.0,0.0,21,0.00,,CLR,0.00,VWS V14.01,2013-03-27 19:53:00,
2013-03-27 14:58:00,48.5,10.4,29.32,North,0,0.0,0.0,21,0.00,,CLR,0.00,VWS V14.01,2013-03-27 19:58:00,
2013-03-27 15:03:00,48.5,10.4,29.32,North,0,0.0,0.0,21,0.00,,CLR,0.00,VWS V14.01,2013-03-27 20:03:00,
2013-03-27 15:08:00,48.0,9.9,29.32,North,0,0.0,0.0,21,0.00,,CLR,0.00,VWS V14.01,2013-03-27 20:08:00,
2013-03-27 15:13:00,48.0,9.9,29.32,North,0,0.0,0.0,21,0.00,,CLR,0.00,VWS V14.01,2013-03-27 20:13:00,
2013-03-27 15:19:00,48.2,10.1,29.32,North,0,0.0,0.0,21,0.00,,CLR,0.00,VWS V14.01,2013-03-27 20:19:00,
2013-03-27 15:24:00,48.2,10.1,29.32,North,0,0.0,0.0,21,0.00,,CLR,0.00,VWS V14.01,2013-03-27 20:24:00,
2013-03-27 15:29:00,47.8,9.8,29.32,North,0,0.0,0.0,21,0.00,,CLR,0.00,VWS V14.01,2013-03-27 20:29:00,
2013-03-27 15:34:00,48.4,10.2,29.32,North,0,0.0,0.0,21,0.00,,CLR,0.00,VWS V14.01,2013-03-27 20:34:00,
2013-03-27 15:40:00,48.2,10.1,29.32,North,0,0.0,0.0,21,0.00,,CLR,0.00,VWS V14.01,2013-03-27 20:40:00,
2013-03-27 15:45:00,47.8,9.8,29.32,North,0,0.0,0.0,21,0.00,,CLR,0.00,VWS V14.01,2013-03-27 20:45:00,
2013-03-27 15:50:00,47.3,9.3,29.32,North,0,0.0,0.0,21,0.00,,CLR,0.00,VWS V14.01,2013-03-27 20:50:00,
2013-03-27 15:55:00,46.7,8.9,29.32,North,0,0.0,0.0,21,0.00,,CLR,0.00,VWS V14.01,2013-03-27 20:55:00,
2013-03-27 16:01:00,46.6,8.7,29.32,North,0,0.0,0.0,21,0.00,,CLR,0.00,VWS V14.01,2013-03-27 21:01:00,
2013-03-27 16:06:00,46.6,8.7,29.32,North,0,0.0,0.0,21,0.00,,CLR,0.00,VWS V14.01,2013-03-27 21:06:00,
2013-03-27 16:12:00,46.4,8.6,29.32,North,0,0.0,0.0,21,0.00,,CLR,0.00,VWS V14.01,2013-03-27 21:12:00,
2013-03-27 16:17:00,46.6,8.7,29.32,North,0,0.0,0.0,21,0.00,,CLR,0.00,VWS V14.01,2013-03-27 21:17:00,
2013-03-27 16:22:00,46.9,9.0,29.32,North,0,0.0,0.0,21,0.00,,CLR,0.00,VWS V14.01,2013-03-27 21:22:00,
2013-03-27 16:27:00,46.9,9.0,29.32,North,0,0.0,0.0,21,0.00,,CLR,0.00,VWS V14.01,2013-03-27 21:27:00,
2013-03-27 16:33:00,46.2,8.4,29.32,North,0,0.0,0.0,21,0.00,,CLR,0.00,VWS V14.01,2013-03-27 21:33:00,
2013-03-27 16:38:00,45.8,9.2,29.32,North,0,0.0,0.0,22,0.00,,CLR,0.00,VWS V14.01,2013-03-27 21:38:00,
2013-03-27 16:43:00,46.2,8.4,29.32,North,0,0.0,0.0,21,0.00,,CLR,0.00,VWS V14.01,2013-03-27 21:43:00,
2013-03-27 16:48:00,45.7,9.0,29.32,North,0,0.0,0.0,22,0.00,,CLR,0.00,VWS V14.01,2013-03-27 21:48:00,
2013-03-27 16:53:00,44.2,7.8,29.32,North,0,0.0,0.0,22,0.00,,CLR,0.00,VWS V14.01,2013-03-27 21:53:00,
2013-03-27 16:59:00,44.4,7.9,29.32,North,0,0.0,0.0,22,0.00,,CLR,0.00,VWS V14.01,2013-03-27 21:59:00,
2013-03-27 17:04:00,44.4,7.9,29.32,North,0,0.0,0.0,22,0.00,,CLR,0.00,VWS V14.01,2013-03-27 22:04:00,
2013-03-27 17:09:00,44.8,8.2,29.32,North,0,0.0,0.0,22,0.00,,CLR,0.00,VWS V14.01,2013-03-27 22:09:00,
2013-03-27 17:15:00,43.5,7.2,29.32,North,0,0.0,0.0,22,0.00,,CLR,0.00,VWS V14.01,2013-03-27 22:15:00,
2013-03-27 17:20:00,43.5,7.2,29.32,North,0,0.0,0.0,22,0.00,,CLR,0.00,VWS V14.01,2013-03-27 22:20:00,
2013-03-27 17:25:00,44.0,7.7,29.32,North,0,0.0,0.0,22,0.00,,CLR,0.00,VWS V14.01,2013-03-27 22:25:00,
2013-03-27 17:30:00,43.9,7.5,29.32,North,0,0.0,0.0,22,0.00,,CLR,0.00,VWS V14.01,2013-03-27 22:30:00,
2013-03-27 17:36:00,43.7,7.3,29.32,North,0,0.0,0.0,22,0.00,,CLR,0.00,VWS V14.01,2013-03-27 22:36:00,
2013-03-27 17:41:00,42.8,6.6,29.32,North,0,0.0,0.0,22,0.00,,CLR,0.00,VWS V14.01,2013-03-27 22:41:00,
2013-03-27 17:47:00,43.1,6.9,29.32,North,0,0.0,0.0,22,0.00,,CLR,0.00,VWS V14.01,2013-03-27 22:47:00,
2013-03-27 17:52:00,43.0,6.7,29.32,North,0,0.0,0.0,22,0.00,,CLR,0.00,VWS V14.01,2013-03-27 22:52:00,
2013-03-27 17:57:00,41.9,6.8,29.32,North,0,0.0,0.0,23,0.00,,CLR,0.00,VWS V14.01,2013-03-27 22:57:00,
2013-03-27 18:03:00,40.8,5.9,29.32,North,0,0.0,0.0,23,0.00,,CLR,0.00,VWS V14.01,2013-03-27 23:03:00,
2013-03-27 18:08:00,40.3,5.4,29.32,North,0,0.0,0.0,23,0.00,,CLR,0.00,VWS V14.01,2013-03-27 23:08:00,
2013-03-27 18:13:00,39.9,5.1,29.32,North,0,0.0,0.0,23,0.00,,CLR,0.00,VWS V14.01,2013-03-27 23:13:00,
2013-03-27 18:18:00,39.4,4.7,29.32,North,0,0.0,0.0,23,0.00,,CLR,0.00,VWS V14.01,2013-03-27 23:18:00,
2013-03-27 18:23:00,39.0,4.4,29.32,North,0,0.0,0.0,23,0.00,,CLR,0.00,VWS V14.01,2013-03-27 23:23:00,
2013-03-27 18:29:00,38.6,4.1,29.32,North,0,0.0,0.0,23,0.00,,CLR,0.00,VWS V14.01,2013-03-27 23:29:00,
2013-03-27 18:34:00,38.3,3.7,29.32,North,0,0.0,0.0,23,0.00,,CLR,0.00,VWS V14.01,2013-03-27 23:34:00,
2013-03-27 18:39:00,38.1,3.6,29.32,North,0,0.0,0.0,23,0.00,,CLR,0.00,VWS V14.01,2013-03-27 23:39:00,
2013-03-27 18:44:00,37.6,3.1,29.32,North,0,0.0,0.0,23,0.00,,CLR,0.00,VWS V14.01,2013-03-27 23:44:00,
2013-03-27 18:50:00,37.2,5.5,29.32,North,0,0.0,0.0,26,0.00,,CLR,0.00,VWS V14.01,2013-03-27 23:50:00,
2013-03-27 18:57:00,36.5,4.9,29.32,North,0,0.0,0.0,26,0.00,,CLR,0.00,VWS V14.01,2013-03-27 23:57:00,
2013-03-27 19:03:00,35.9,4.4,29.32,North,0,0.0,0.0,26,0.00,,CLR,0.00,VWS V14.01,2013-03-28 00:03:00,
2013-03-27 19:08:00,35.4,3.9,29.32,North,0,0.0,0.0,26,0.00,,CLR,0.00,VWS V14.01,2013-03-28 00:08:00,
2013-03-27 19:14:00,34.7,4.1,29.32,North,0,0.0,0.0,27,0.00,,CLR,0.00,VWS V14.01,2013-03-28 00:14:00,
2013-03-27 19:19:00,34.0,3.5,29.32,North,0,0.0,0.0,27,0.00,,CLR,0.00,VWS V14.01,2013-03-28 00:19:00,
2013-03-27 19:24:00,33.2,2.9,29.32,North,0,0.0,0.0,27,0.00,,CLR,0.00,VWS V14.01,2013-03-28 00:24:00,
2013-03-27 19:29:00,32.5,2.3,29.32,North,0,0.0,0.0,27,0.00,,CLR,0.00,VWS V14.01,2013-03-28 00:29:00,
2013-03-27 19:35:00,31.8,3.9,29.32,North,0,0.0,0.0,30,0.00,,CLR,0.00,VWS V14.01,2013-03-28 00:35:00,
2013-03-27 19:40:00,31.1,3.3,29.32,North,0,0.0,0.0,30,0.00,,CLR,0.00,VWS V14.01,2013-03-28 00:40:00,
2013-03-27 19:46:00,30.4,2.7,29.32,North,0,0.0,0.0,30,0.00,,CLR,0.00,VWS V14.01,2013-03-28 00:46:00,
2013-03-27 19:52:00,29.5,1.9,29.32,North,0,0.0,0.0,30,0.00,,CLR,0.00,VWS V14.01,2013-03-28 00:52:00,
2013-03-27 19:57:00,28.9,2.1,29.32,North,0,0.0,0.0,31,0.00,,CLR,0.00,VWS V14.01,2013-03-28 00:57:00,
2013-03-27 20:02:00,28.2,1.5,29.32,North,0,0.0,0.0,31,0.00,,CLR,0.00,VWS V14.01,2013-03-28 01:02:00,
2013-03-27 20:08:00,27.8,1.8,29.32,North,0,0.0,0.0,32,0.00,,CLR,0.00,VWS V14.01,2013-03-28 01:08:00,
2013-03-27 20:13:00,27.5,2.2,29.32,North,0,0.0,0.0,33,0.00,,CLR,0.00,VWS V14.01,2013-03-28 01:13:00,
2013-03-27 20:18:00,27.1,1.9,29.32,North,0,0.0,0.0,33,0.00,,CLR,0.00,VWS V14.01,2013-03-28 01:18:00,
2013-03-27 20:24:00,26.4,1.2,29.32,North,0,0.0,0.0,33,0.00,,CLR,0.00,VWS V14.01,2013-03-28 01:24:00,
2013-03-27 20:30:00,25.9,1.4,29.32,North,0,0.0,0.0,34,0.00,,CLR,0.00,VWS V14.01,2013-03-28 01:30:00,
2013-03-27 20:35:00,25.5,1.7,29.29,North,0,0.0,0.0,35,0.00,,CLR,0.00,VWS V14.01,2013-03-28 01:35:00,
2013-03-27 20:41:00,25.0,1.2,29.29,North,0,0.0,0.0,35,0.00,,CLR,0.00,VWS V14.01,2013-03-28 01:41:00,
2013-03-27 20:47:00,24.4,0.7,29.29,North,0,0.0,0.0,35,0.00,,CLR,0.00,VWS V14.01,2013-03-28 01:47:00,
2013-03-27 20:52:00,24.1,1.0,29.32,North,0,0.0,0.0,36,0.00,,CLR,0.00,VWS V14.01,2013-03-28 01:52:00,
2013-03-27 20:57:00,23.7,0.7,29.32,North,0,0.0,0.0,36,0.00,,CLR,0.00,VWS V14.01,2013-03-28 01:57:00,
2013-03-27 21:03:00,23.3,0.3,29.32,North,0,0.0,0.0,36,0.00,,CLR,0.00,VWS V14.01,2013-03-28 02:03:00,
2013-03-27 21:08:00,23.2,0.8,29.32,North,0,0.0,0.0,37,0.00,,CLR,0.00,VWS V14.01,2013-03-28 02:08:00,
2013-03-27 21:13:00,23.0,0.6,29.32,North,0,0.0,0.0,37,0.00,,CLR,0.00,VWS V14.01,2013-03-28 02:13:00,
2013-03-27 21:18:00,23.0,1.2,29.32,North,0,0.0,0.0,38,0.00,,CLR,0.00,VWS V14.01,2013-03-28 02:18:00,
2013-03-27 21:23:00,22.8,1.6,29.32,North,0,0.0,0.0,39,0.00,,CLR,0.00,VWS V14.01,2013-03-28 02:23:00,
2013-03-27 21:29:00,22.6,2.0,29.32,North,0,0.0,0.0,40,0.00,,CLR,0.00,VWS V14.01,2013-03-28 02:29:00,
2013-03-27 21:34:00,22.4,2.3,29.32,North,0,0.0,0.0,41,0.00,,CLR,0.00,VWS V14.01,2013-03-28 02:34:00,
2013-03-27 21:40:00,22.4,2.3,29.32,North,0,0.0,0.0,41,0.00,,CLR,0.00,VWS V14.01,2013-03-28 02:40:00,
2013-03-27 21:45:00,22.3,2.7,29.32,North,0,0.0,0.0,42,0.00,,CLR,0.00,VWS V14.01,2013-03-28 02:45:00,
2013-03-27 21:51:00,22.1,2.5,29.32,North,0,0.0,0.0,42,0.00,,CLR,0.00,VWS V14.01,2013-03-28 02:51:00,
2013-03-27 21:56:00,22.1,2.5,29.32,North,0,0.0,0.0,42,0.00,,CLR,0.00,VWS V14.01,2013-03-28 02:56:00,
2013-03-27 22:02:00,21.9,2.3,29.32,North,0,0.0,0.0,42,0.00,,CLR,0.00,VWS V14.01,2013-03-28 03:02:00,
2013-03-27 22:08:00,21.9,2.3,29.32,North,0,0.0,0.0,42,0.00,,CLR,0.00,VWS V14.01,2013-03-28 03:08:00,
2013-03-27 22:13:00,21.5,2.0,29.32,North,0,0.0,0.0,42,0.00,,CLR,0.00,VWS V14.01,2013-03-28 03:13:00,
2013-03-27 22:18:00,21.4,2.3,29.32,North,0,0.0,0.0,43,0.00,,CLR,0.00,VWS V14.01,2013-03-28 03:18:00,
2013-03-27 22:24:00,21.2,2.2,29.32,North,0,0.0,0.0,43,0.00,,CLR,0.00,VWS V14.01,2013-03-28 03:24:00,
2013-03-27 22:29:00,21.2,2.2,29.32,North,0,0.0,0.0,43,0.00,,CLR,0.00,VWS V14.01,2013-03-28 03:29:00,
2013-03-27 22:34:00,20.8,1.9,29.32,North,0,0.0,0.0,43,0.00,,CLR,0.00,VWS V14.01,2013-03-28 03:34:00,
2013-03-27 22:40:00,20.6,1.7,29.32,North,0,0.0,0.0,43,0.00,,CLR,0.00,VWS V14.01,2013-03-28 03:40:00,
2013-03-27 22:45:00,20.5,2.0,29.32,North,0,0.0,0.0,44,0.00,,CLR,0.00,VWS V14.01,2013-03-28 03:45:00,
2013-03-27 22:50:00,20.3,1.9,29.32,North,0,0.0,0.0,44,0.00,,CLR,0.00,VWS V14.01,2013-03-28 03:50:00,
2013-03-27 22:55:00,20.1,1.7,29.32,North,0,0.0,0.0,44,0.00,,CLR,0.00,VWS V14.01,2013-03-28 03:55:00,
2013-03-27 23:00:00,19.9,1.5,29.32,North,0,0.0,0.0,44,0.00,,CLR,0.00,VWS V14.01,2013-03-28 04:00:00,
2013-03-27 23:02:00,19.9,1.5,29.32,North,0,0.0,0.0,44,0.00,,CLR,0.00,VWS V14.01,2013-03-28 04:02:00,
2013-03-27 23:03:00,19.9,1.5,29.32,North,0,0.0,0.0,44,0.00,,CLR,0.00,VWS V14.01,2013-03-28 04:03:00,
2013-03-27 23:04:00,19.9,1.5,29.32,North,0,0.0,0.0,44,0.00,,CLR,0.00,VWS V14.01,2013-03-28 04:04:00,
2013-03-27 23:09:00,19.7,1.4,29.32,North,0,0.0,0.0,44,0.00,,CLR,0.00,VWS V14.01,2013-03-28 04:09:00,
2013-03-27 23:15:00,19.6,1.7,29.32,North,0,0.0,0.0,45,0.00,,CLR,0.00,VWS V14.01,2013-03-28 04:15:00,
2013-03-27 23:20:00,19.4,1.5,29.35,North,0,0.0,0.0,45,0.00,,CLR,0.00,VWS V14.01,2013-03-28 04:20:00,
2013-03-27 23:26:00,19.2,1.4,29.35,North,0,0.0,0.0,45,0.00,,CLR,0.00,VWS V14.01,2013-03-28 04:26:00,
2013-03-27 23:31:00,19.2,1.8,29.35,North,0,0.0,0.0,46,0.00,,CLR,0.00,VWS V14.01,2013-03-28 04:31:00,
2013-03-27 23:37:00,19.0,1.7,29.35,North,0,0.0,0.0,46,0.00,,CLR,0.00,VWS V14.01,2013-03-28 04:37:00,
2013-03-27 23:43:00,18.8,1.5,29.35,North,0,0.0,0.0,46,0.00,,CLR,0.00,VWS V14.01,2013-03-28 04:43:00,
2013-03-27 23:48:00,18.8,1.5,29.35,North,0,0.0,0.0,46,0.00,,CLR,0.00,VWS V14.01,2013-03-28 04:48:00,
2013-03-27 23:54:00,18.5,1.2,29.35,North,0,0.0,0.0,46,0.00,,CLR,0.00,VWS V14.01,2013-03-28 04:54:00,
2013-03-27 23:59:00,18.3,1.5,29.35,North,0,0.0,0.0,47,0.00,,CLR,0.00,VWS V14.01,2013-03-28 04:59:00,